Regional Weather Roundup
Issued by NWS

Home | Current Version | Previous Version | Graphics & Text | Print | Product List | Glossary On
Versions: 1 2 3 4 5 6 7 8 9 10 11 12 13 14 15 16 17 18 19 20 21 22 23 24 25 26 27 28 29 30 31 32 33 34 35 36 37 38 39 40 41 42 43 44 45 46 47 48 49 50
000
ASUS44 KMEG 070900
RWRTN
TENNESSEE HOURLY STATE WEATHER ROUNDUP
NATIONAL WEATHER SERVICE MEMPHIS TN
400 AM CDT TUE JUL 07 2015

TNZ002-004-019-021-049-052-054-088>092-071000-
WEST TENNESSEE

CITY           SKY/WX    TMP DP  RH WIND       PRES   REMARKS
MEMPHIS INTL   PTCLDY    78  73  84 S7        30.02R
NWS MEMPHIS      N/A     77 N/A N/A MISG        N/A
JACKSON        MOCLDY    71  68  90 SE5       30.03S
DYERSBURG        N/A    N/A N/A N/A MISG        N/A
PARIS          MOCLDY    70  68  94 CALM      30.02S
LEXINGTON      PTCLDY    70  68  94 SE3       30.05S
$$

TNZ008-025-027-028-033-062-065-066-071000-
NORTH MIDDLE TENNESSEE

CITY           SKY/WX    TMP DP  RH WIND       PRES   REMARKS
NASHVILLE      MOCLDY    75  73  93 SW9       30.07R
CLARKSVILLE    PTCLDY    77  72  84 SW8       30.02S
COOKEVILLE     CLEAR     72  72 100 CALM      30.10S
CROSSVILLE     PTCLDY    71  68  90 SW5       30.16S
$$

TNZ061-075-076-078-094-096-097-071000-
SOUTH MIDDLE TENNESSEE

CITY           SKY/WX    TMP DP  RH WIND       PRES   REMARKS
FAYETTEVILLE   CLEAR     72  70  94 S5        30.12R
TULLAHOMA      CLEAR     70  70 100 CALM      30.13R
WINCHESTER     CLEAR     70  70 100 CALM      30.13R
COLUMBIA       MOCLDY    75  73  94 SW7       30.07S
SHELBYVILLE    PTCLDY    73  73 100 S5          N/A
$$

TNZ017-018-042-046-047-071000-
NORTHEAST TENNESSEE

CITY           SKY/WX    TMP DP  RH WIND       PRES   REMARKS
TRI CITIES     MOCLDY    65  64  97 CALM      30.14S FOG
ELIZABETHTON   PTSUNNY   63  61  94 NE3       30.16R
$$

TNZ012-013-036-069-073-074-071000-
CENTRAL EAST TENNESSEE

CITY           SKY/WX    TMP DP  RH WIND       PRES   REMARKS
KNOXVILLE      MOCLDY    70  67  90 SW3       30.11S
OAK RIDGE      MOCLDY    71  68  90 CALM      30.13S
GATLINBURG     SUNNY     64  63  94 CALM      30.12R
$$

TNZ083-085-099-071000-
SOUTHEAST TENNESSEE

CITY           SKY/WX    TMP DP  RH WIND       PRES   REMARKS
CHATTANOOGA    CLEAR     71  69  93 CALM      30.12S
$$

SKY/WX REPORTED AS FAIR MEANS FEW OR NO CLOUDS BELOW
12 THOUSAND FEET.




USA.gov is the U.S. government's official web portal to all federal, state and local government web resources and services.